Regional Weather Roundup
Issued by NWS

Home | Current Version | Previous Version | Text Only | Print | Product List | Glossary Off
Versions: 1 2 3 4 5 6 7 8 9 10 11 12 13 14 15 16 17 18 19 20 21 22 23 24 25 26 27 28 29 30 31 32 33 34 35 36 37 38 39 40 41 42 43 44 45 46 47 48 49 50

000
ASUS43 KFSD 191310
RWRSD

WEATHER ROUNDUP FOR SOUTH DAKOTA
NATIONAL WEATHER SERVICE SIOUX FALLS SD
800 AM CDT FRI SEP 19 2014

NOTE: "FAIR" INDICATES FEW OR NO CLOUDS BELOW 12,000 FEET WITH NO
SIGNIFICANT WEATHER AND/OR OBSTRUCTIONS TO VISIBILITY.


SDZ001>005-009-010-012>017-191400-
NORTHWEST AND NORTH CENTRAL SOUTH DAKOTA

CITY           SKY/WX    TMP DP  RH WIND       PRES   REMARKS
BUFFALO          N/A     59  53  80 W13       29.69R
FAITH            N/A     61  56  83 SW12      29.72R
MOBRIDGE       CLOUDY    62  62 100 CALM      29.64F FOG
$$

SDZ012>016-024>037-041>051-057-063-072>074-191400-
SOUTHWEST AND SOUTH CENTRAL SOUTH DAKOTA

CITY           SKY/WX    TMP DP  RH WIND       PRES   REMARKS
RAPID CTY ARPT CLOUDY    60  52  74 W3        29.79R
PIERRE         CLOUDY    60  59  96 CALM      29.65F
CUSTER         CLOUDY    57  46  66 W6        29.95R
ELLSWORTH AFB  CLOUDY    62  52  70 SW7       29.78R
PHILIP         MOCLDY    64  60  87 W8        29.74R
PINE RIDGE     PTCLDY    52  52 100 SW3       29.83R
WINNER         FAIR      65  61  87 SW16      29.71F
$$

SDZ004>011-016>023-039-040-191400-
NORTHEAST SOUTH DAKOTA

CITY           SKY/WX    TMP DP  RH WIND       PRES   REMARKS
ABERDEEN       CLOUDY    62  59  90 S7        29.70R
WATERTOWN      CLOUDY    60  59  96 S18G30    29.71F FOG
SISSETON         N/A     63  60  90 S13G21    29.66F
$$

SDZ017-020-022-023-036>040-048>070-191400-
SOUTHEAST SOUTH DAKOTA

CITY           SKY/WX    TMP DP  RH WIND       PRES   REMARKS
SIOUX FALLS    DRIZZLE   63  61  93 S13       29.81F FOG
HURON          CLOUDY    64  61  90 S12G24    29.69F
CHAMBERLAIN    PTCLDY    62  61  96 S8        29.68F
MITCHELL       CLOUDY    66  63  90 S15       29.72F
YANKTON        CLOUDY    66  63  88 S14       29.80S
$$

ABBREVIATIONS USED IN REMARKS
   TC - TEMPERATURE IN CELSIUS
  WCI - WIND CHILL INDEX
   HX - HEAT INDEX
  VSB - VISIBILITY



USA.gov is the U.S. government's official web portal to all federal, state and local government web resources and services.